ISS (ZARYA) 1 25544U 98067A 26167.09292088 .00007536 00000+0 14355-3 0 9991 2 25544 51.6337 305.5091 0004806 191.3253 168.7628 15.49253146571586 POISK 1 36086U 09060A 26167.09292088 .00007536 00000+0 14355-3 0 9999 2 36086 51.6337 305.5091 0004806 191.3253 168.7628 15.49253146571253 CSS (TIANHE) 1 48274U 21035A 26167.08121933 .00020101 00000+0 23775-3 0 9995 2 48274 41.4696 328.7320 0007464 68.7189 291.4446 15.60769173292998 ISS (NAUKA) 1 49044U 21066A 26167.09292088 .00007536 00000+0 14355-3 0 9997 2 49044 51.6337 305.5091 0004806 191.3253 168.7628 15.49253146571307 FREGAT DEB 1 49271U 11037PF 26151.14915702 .00018955 00000+0 30994-1 0 9992 2 49271 51.6227 53.0895 0914379 245.3590 104.9405 12.41880577222933 CSS (WENTIAN) 1 53239U 22085A 26166.82526868 .00020744 00000+0 24529-3 0 9996 2 53239 41.4696 330.2900 0007542 66.1624 294.0005 15.60759061288237 CSS (MENGTIAN) 1 54216U 22143A 26167.08121933 .00020101 00000+0 23775-3 0 9999 2 54216 41.4696 328.7320 0007464 68.7189 291.4446 15.60769173293633 HRC MONOBLOCK CAMERA 1 66052U 98067XR 26167.05863546 .00072913 00000+0 50409-3 0 9990 2 66052 51.6255 284.9700 0001460 290.3475 69.7367 15.73859971 37829 SZ-21 MODULE 1 66515U 25246C 26166.69531253 .00040520 00000+0 25047-3 0 9998 2 66515 41.4723 316.6164 0006492 340.9855 19.0747 15.76287551 33504 SOYUZ-MS 28 1 66664U 25275A 26167.09292088 .00007536 00000+0 14355-3 0 9990 2 66664 51.6337 305.5091 0004806 191.3253 168.7628 15.49253146571405 DUPLEX 1 66906U 98067XS 26166.58134800 .00033334 00000+0 37167-3 0 9999 2 66906 51.6282 297.5802 0003423 199.2005 160.8861 15.62486744 30408 ISS OBJECT XY 1 66912U 98067XY 26166.60003747 .00417871 82981-4 92420-3 0 9992 2 66912 51.6179 282.5326 0010656 317.3526 42.6654 15.97324047 30594 KNACKSAT-2 1 67683U 98067XZ 26167.06925752 .00039932 00000+0 48947-3 0 9998 2 67683 51.6312 300.0997 0009232 210.2496 149.7965 15.59891318 20102 CORAL 1 67684U 98067YA 26167.05580075 .00168459 00000+0 10308-2 0 9999 2 67684 51.6237 293.9632 0008744 250.5363 109.4692 15.76248144 20182 GXIBA-1 1 67685U 98067YB 26166.62466899 .00048635 00000+0 55969-3 0 9995 2 67685 51.6298 301.6262 0010489 206.6220 153.4236 15.61434598 20041 UITMSAT-2 1 67686U 98067YC 26166.63968393 .00069865 00000+0 70622-3 0 9994 2 67686 51.6283 300.2251 0005871 199.8548 160.2219 15.64646315 20068 LEOPARD 1 67687U 98067YD 26166.64996183 .00047724 00000+0 56294-3 0 9993 2 67687 51.6319 301.8101 0006477 189.6634 170.4235 15.60841348 19963 HMU-SAT2 1 67688U 98067YE 26167.07526229 .00063094 00000+0 67697-3 0 9999 2 67688 51.6301 298.6438 0005967 195.9885 164.0921 15.63172625 20042 CREW DRAGON 12 1 67796U 26031A 26167.09292088 .00007536 00000+0 14355-3 0 9998 2 67796 51.6337 305.5091 0004806 191.3253 168.7628 15.49253146571356 PROGRESS-MS 33 1 68319U 26058A 26167.09292088 .00007536 00000+0 14355-3 0 9999 2 68319 51.6337 305.5091 0004806 191.3253 168.7628 15.49253146571459 CYGNUS NG-24 1 68689U 26079A 26166.83490248 .00007214 00000+0 13778-3 0 9992 2 68689 51.6337 306.7860 0004812 190.3373 169.7517 15.49248206571465 PROGRESS-MS 34 1 68837U 26093A 26166.83490248 .00007214 00000+0 13778-3 0 9993 2 68837 51.6337 306.7860 0004812 190.3373 169.7517 15.49248206571516 TIANZHOU-10 1 69049U 26102A 26166.82526868 .00020744 00000+0 24529-3 0 9996 2 69049 41.4696 330.2900 0007542 66.1624 294.0005 15.60759061 5724 DRAGON CRS-34 1 69103U 26107A 26167.09292088 .00007536 00000+0 14355-3 0 9996 2 69103 51.6337 305.5091 0004806 191.3253 168.7628 15.49253146571608 SHENZHOU-23 (SZ-23) 1 69180U 26113A 26166.82526868 .00020744 00000+0 24529-3 0 9994 2 69180 41.4696 330.2900 0007542 66.1624 294.0005 15.60759061293112